Location: Berkeley
(37.8716°N, 122.2727°W)
Time: 10:42:53
(UTC-07:00)

Envisat - Pass Details

Date: 22 April 2024
Orbit: 762 x 764 km, 98.3° (Epoch: 29 May)

Event Time Altitude Azimuth Distance (km) Brightness Sun altitude
Rises 05:44:15 0° 355° (N) 3,235 6.5 -8.1°
Reaches altitude 10° 05:47:14 10° 337° (NNW) 2,304 5.5 -7.6°
Maximum altitude 05:50:33 18° 295° (WNW) 1,811 4.6 -7.0°
Drops below altitude 10° 05:53:53 10° 254° (WSW) 2,294 4.8 -6.4°
Enters shadow 05:54:40 - 248° (WSW) 2,512 5.0 -6.2°
